Morrisville, VT

6:15 PM EDT on August 24, 2016 (GMT -0400)
Morrisville Stowe State

Weather History for KMVL - July, 2013

Change the Weather History Date:

Tuesday, July 16, 2013

  Actual Average Record
Temperature  
Mean Temperature 76 °F 68 °F  
Max Temperature 88 °F 80 °F 89 °F (1999)
Min Temperature 64 °F 56 °F 44 °F (2015)
Degree Days  
Heating Degree Days 0 1  
Month to date heating degree days 0 17  
Since 1 June heating degree days 130 140  
Since 1 July heating degree days 0 17  
Cooling Degree Days 11 4  
Month to date cooling degree days 119 57  
Year to date cooling degree days 215 113  
Since 1 June cooling degree days 195 105  
Growing Degree Days 26 (Base 50)    
Moisture  
Dew Point 65 °F    
Average Humidity 70    
Maximum Humidity 93    
Minimum Humidity 46    
Precipitation  
Precipitation 0.00 in 0.13 in 1.08 in (1998)
Month to date precipitation 2.62 2.26  
Year to date precipitation 23.25 17.86  
Sea Level Pressure  
Sea Level Pressure 30.22 in    
Wind  
Wind Speed 3 mph (NNW)    
Max Wind Speed 14 mph    
Max Gust Speed 18 mph    
Visibility 8 miles    
Events      
T = Trace of Precipitation, MM = Missing Value Source: NWS Daily Summary

Daily Weather History Graph

Daily Weather History Graph

Search for Another Location

Airport or City:

Trip Planner

Search our weather history database for the weather conditions in past years. The results will help you decide how hot, cold, wet, or windy it might be!

Date:

Astronomy

Jul. 16, 2013 Rise Set
Actual Time 5:20 AM EDT 8:31 PM EDT
Civil Twilight 4:45 AM EDT 9:06 PM EDT
Nautical Twilight 3:59 AM EDT 9:52 PM EDT
Astronomical Twilight 3:03 AM EDT 10:47 PM EDT
Moon 2:04 PM EDT (7/16) No Moon Set
Length of Visible Light 16h 21m
Length of Day
15h 10m
First Quarter, 56% of the Moon is Illuminated
Jul 16
First Quarter
Jul 22
Full
Jul 29
Last Quarter
Aug 6
New
Aug 14
First Quarter

Hourly Weather History & Observations

Time (EDT) Temp. Heat Index Dew Point Humidity Pressure Visibility Wind Dir Wind Speed Gust Speed Precip Events Conditions
12:54 AM 68.0 °F - 66.0 °F 93% 30.20 in 8.0 mi Calm Calm - N/A   Mostly Cloudy
1:54 AM 66.9 °F - 64.9 °F 93% 30.19 in 6.0 mi Calm Calm - N/A   Clear
2:54 AM 66.0 °F - 64.0 °F 93% 30.20 in 5.0 mi Calm Calm - N/A   Partly Cloudy
3:54 AM 64.9 °F - 63.0 °F 93% 30.20 in 4.0 mi Calm Calm - N/A   Clear
4:54 AM 64.9 °F - 63.0 °F 93% 30.21 in 4.0 mi Calm Calm - N/A   Clear
5:54 AM 64.9 °F - 63.0 °F 93% 30.23 in 3.0 mi Calm Calm - N/A   Clear
6:54 AM 66.9 °F - 64.0 °F 90% 30.23 in 5.0 mi Calm Calm - N/A   Clear
7:54 AM 73.0 °F - 66.9 °F 81% 30.24 in 9.0 mi Calm Calm - N/A   Clear
8:54 AM 77.0 °F - 66.9 °F 71% 30.25 in 10.0 mi Calm Calm - N/A   Clear
9:54 AM 80.1 °F 82.3 °F 66.9 °F 64% 30.24 in 10.0 mi ENE 4.6 mph - 0.01 in   Clear
10:54 AM 84.0 °F 86.5 °F 66.9 °F 56% 30.24 in 10.0 mi North 8.1 mph - N/A   Partly Cloudy
11:54 AM 84.9 °F 87.1 °F 66.0 °F 53% 30.24 in 10.0 mi North 11.5 mph - N/A   Clear
12:54 PM 84.9 °F 87.1 °F 66.0 °F 53% 30.23 in 10.0 mi NW 9.2 mph - N/A   Scattered Clouds
1:54 PM 84.9 °F 87.1 °F 66.0 °F 53% 30.22 in 10.0 mi NNW 6.9 mph - N/A   Partly Cloudy
2:54 PM 87.1 °F 88.9 °F 64.9 °F 48% 30.22 in 10.0 mi Variable 3.5 mph - N/A   Clear
3:54 PM 87.1 °F 88.3 °F 64.0 °F 46% 30.21 in 10.0 mi NW 5.8 mph - N/A   Clear
4:54 PM 87.1 °F 88.3 °F 64.0 °F 46% 30.20 in 10.0 mi NW 8.1 mph - N/A   Clear
5:54 PM 84.9 °F 86.6 °F 64.9 °F 51% 30.19 in 10.0 mi NW 5.8 mph - N/A   Clear
6:54 PM 84.0 °F 86.3 °F 66.0 °F 55% 30.19 in 10.0 mi NW 5.8 mph - N/A   Clear
7:54 PM 80.1 °F 82.3 °F 66.9 °F 64% 30.20 in 10.0 mi Calm Calm - N/A   Clear
8:54 PM 73.9 °F - 68.0 °F 82% 30.20 in 10.0 mi Calm Calm - N/A   Clear
9:54 PM 71.1 °F - 66.9 °F 87% 30.22 in 10.0 mi Calm Calm - N/A   Clear
10:54 PM 69.1 °F - 66.0 °F 90% 30.22 in 10.0 mi Calm Calm - N/A   Clear
11:54 PM 68.0 °F - 64.9 °F 90% 30.23 in 8.0 mi Calm Calm - N/A   Clear